Theta_e
326 326 326 326 325 325 325 324 323 323 323 321 321 321 322 322 318 317 319 317 315 318 317 314 315 314 314 314 313 312 309 310 313 315 315 318 316 318 318 318 319 320 321 321 321
327 327 326 326 326 325 325 323 323 319 319 318 319 319 319 320 319 315 316 313 315 319 316 316 314 313 314 314 314 310 307 311 312 314 315 316 316 316 317 317 317 318 319 319 319
325 325 325 324 324 324 322 318 315 316 314 314 314 313 315 315 316 317 313 317 319 320 316 317 315 314 313 313 314 312 310 311 314 316 316 316 316 317 316 316 316 316 317 316 316
319 318 318 316 314 312 309 309 307 307 307 307 309 313 314 312 317 318 319 319 319 318 316 317 315 314 312 312 314 312 313 314 314 315 315 314 316 315 315 316 317 317 317 316 316
309 308 308 308 307 307 306 306 306 306 306 308 309 312 311 314 312 309 313 316 319 314 315 316 314 314 314 313 314 313 314 315 315 315 315 316 314 314 315 317 316 317 316 316 316
306 305 305 305 304 304 303 303 303 304 304 305 310 312 313 310 308 317 320 319 318 313 315 314 314 314 314 314 313 314 313 313 314 314 314 314 314 315 316 317 317 317 317 317 317
300 300 300 301 301 301 302 302 302 303 304 306 311 313 311 309 306 308 309 315 314 312 312 314 314 314 313 313 314 313 312 312 312 314 313 315 314 314 317 317 317 317 317 318 317
299 299 300 300 300 301 301 302 302 303 304 305 312 312 310 306 311 314 313 312 315 317 316 313 314 313 314 313 313 312 311 312 313 314 315 314 316 314 318 316 316 317 318 317 317
299 299 299 299 298 299 299 300 302 304 307 308 311 311 308 311 313 314 317 317 315 317 318 318 315 312 313 311 310 311 311 312 313 314 314 314 315 314 315 316 315 315 316 317 317
298 298 298 298 298 298 300 300 303 309 310 310 310 307 309 313 314 316 313 312 317 316 315 317 313 309 308 310 312 312 312 311 312 311 312 312 313 314 314 314 314 315 316 316 315
299 298 297 297 297 299 301 303 307 309 309 309 308 309 309 311 315 315 316 312 313 314 312 312 309 308 310 309 311 312 312 313 312 312 312 312 312 312 312 311 312 314 314 314 316
298 298 296 297 299 300 305 306 311 310 310 309 308 310 306 310 311 308 312 313 311 310 310 310 309 309 309 310 310 311 313 314 314 313 313 311 310 309 310 311 312 312 314 316 320
299 298 297 300 300 301 301 302 308 309 310 310 309 310 310 309 311 311 311 313 313 310 309 309 310 311 311 311 312 313 313 313 313 313 313 312 313 311 313 313 313 314 314 317 317
300 300 298 300 300 303 303 302 308 310 309 308 312 310 311 313 314 313 312 311 312 313 313 312 312 312 313 314 313 313 312 313 314 311 312 312 315 313 313 312 312 315 316 315 313
300 300 299 300 305 306 303 308 310 310 296 306 311 312 313 313 313 313 313 313 313 313 313 314 313 313 314 314 314 315 315 315 313 311 310 313 313 312 311 311 315 313 312 310 309
300 300 300 301 303 304 308 311 311 300 300 309 312 312 313 313 314 314 314 314 314 312 312 313 314 313 313 313 313 314 313 310 309 309 313 311 312 312 315 317 314 312 309 308 307
300 300 300 301 304 304 309 310 309 304 306 308 311 313 314 314 313 313 313 312 312 314 314 313 313 311 312 313 313 314 314 317 312 311 312 312 312 314 314 311 310 308 306 306 305
300 301 300 300 301 305 309 310 307 306 307 308 308 307 311 312 312 313 311 311 309 309 309 311 311 311 312 313 313 314 315 315 316 314 311 311 310 314 311 308 308 308 306 305 303
299 300 300 299 300 306 309 309 305 307 308 308 308 308 307 308 309 310 311 311 311 310 311 310 311 311 310 311 312 312 311 311 313 312 312 310 313 312 312 309 306 305 306 304 303
299 300 300 301 306 307 307 308 306 307 308 308 310 310 311 311 311 310 309 311 312 310 309 310 311 312 312 309 309 311 309 311 311 316 315 312 311 314 314 309 309 306 304 303 302
299 300 301 304 306 306 307 305 306 307 308 310 309 310 311 312 312 312 313 313 311 311 309 310 310 311 311 309 308 307 307 307 312 312 313 313 308 313 314 311 310 307 304 301 299
299 301 301 304 305 305 306 306 307 308 307 307 308 309 310 312 312 312 314 314 310 310 310 309 309 310 311 310 307 307 307 308 311 310 308 307 307 313 311 311 308 302 300 299 298
300 300 302 305 305 305 306 306 307 308 309 310 310 311 310 311 310 310 312 310 311 310 310 308 308 310 309 309 309 310 308 308 309 309 309 309 307 312 311 310 304 301 299 297 295
299 300 301 303 303 304 304 306 308 308 308 309 310 311 311 311 310 310 308 307 307 307 310 309 308 308 309 310 308 307 309 307 308 310 309 308 307 307 309 306 301 300 297 295 294
299 300 300 300 301 303 306 306 306 307 308 309 309 309 310 309 309 309 307 305 306 306 305 305 307 308 308 308 310 310 310 309 307 307 307 306 306 305 304 302 299 297 296 294 293
298 300 301 301 301 302 304 306 306 307 307 309 309 309 309 310 308 310 307 305 306 306 304 304 305 304 304 305 305 307 306 304 303 304 305 304 304 301 299 297 296 295 294 293 291
298 299 301 302 302 303 303 304 306 307 307 307 307 309 309 309 309 309 309 307 308 306 304 304 304 303 304 303 301 302 302 302 303 305 305 302 304 299 297 297 295 292 292 291 289
Wind_Speed
15 16 17 17 19 21 20 22 24 24 21 23 26 23 24 28 26 23 16 1 6 15 12 7 7 5 2 1 1 2 2 2 4 3 6 14 8 11 16 12 14 8 8 2 3
16 17 19 20 22 22 25 28 25 25 25 24 25 24 23 27 28 19 1 4 5 14 8 9 5 7 4 3 2 4 4 7 7 5 9 22 12 17 8 12 14 18 15 12 1
24 25 26 26 25 26 27 26 25 25 27 26 25 24 24 22 23 1 5 2 15 15 10 9 5 6 5 3 7 4 6 5 15 27 30 23 24 19 4 3 13 17 20 20 19
22 22 22 22 22 23 23 22 23 23 25 25 24 21 22 19 5 4 8 13 17 14 11 8 2 2 3 4 6 4 9 12 18 23 19 10 23 18 12 19 24 23 26 26 23
18 19 19 20 20 20 20 19 18 19 22 20 20 17 19 12 20 15 22 17 10 12 12 7 5 2 2 6 11 5 5 10 16 23 24 24 14 13 24 36 30 28 26 27 27
17 17 17 18 18 17 17 18 18 18 18 17 16 14 16 9 9 1 8 11 9 10 11 4 4 10 11 4 3 10 16 17 16 21 21 17 13 13 24 36 41 41 37 32 26
12 13 14 15 15 15 15 17 17 18 16 15 14 16 21 31 16 19 22 20 13 12 15 11 11 9 9 8 10 11 10 11 6 12 8 27 11 12 30 31 35 36 38 36 34
12 13 14 16 16 16 16 16 16 17 15 14 12 15 15 21 11 6 8 23 20 23 18 15 15 13 7 9 10 7 6 2 5 3 11 3 19 11 27 28 33 34 35 32 30
13 14 15 17 16 15 15 14 14 14 11 9 11 11 16 3 7 3 7 10 15 14 14 17 13 12 10 2 4 3 7 5 5 9 5 4 22 4 30 25 25 26 28 13 9
13 14 14 14 14 13 11 11 11 8 10 11 14 8 10 2 2 3 1 1 8 8 7 16 10 2 2 4 5 7 6 4 3 6 9 11 22 17 17 22 26 30 23 13 12
13 14 14 13 14 10 7 5 4 5 11 12 5 13 11 12 10 6 9 7 7 7 5 6 4 7 15 10 8 6 9 15 11 7 10 12 19 18 20 16 17 25 26 8 23
11 12 11 12 11 9 7 5 4 5 13 24 28 36 37 25 11 26 13 11 10 7 2 3 8 11 9 10 12 13 14 15 16 12 13 12 12 7 7 12 20 23 28 14 27
7 8 7 8 8 10 12 13 5 7 7 12 22 17 22 20 17 29 20 11 4 5 9 10 8 7 11 13 14 17 12 13 16 10 3 5 13 7 19 20 26 28 12 19 23
7 7 6 6 6 7 11 4 6 5 4 7 6 7 11 9 7 14 23 19 6 12 9 9 18 18 16 12 10 17 6 11 8 7 8 6 12 12 16 12 6 11 21 30 29
9 6 7 6 6 7 3 13 7 0 4 2 5 5 15 12 2 3 8 17 9 10 4 7 2 5 10 18 8 20 11 7 3 5 3 23 2 9 7 14 6 11 21 27 27
11 8 10 8 11 8 3 14 6 5 7 5 9 9 7 8 3 6 7 13 13 8 9 13 19 6 15 16 13 17 4 7 4 1 4 16 6 6 6 8 12 17 19 20 26
12 11 11 10 8 15 13 14 3 4 3 5 6 7 10 8 4 3 5 8 7 3 6 10 14 6 12 13 3 3 5 2 3 1 6 4 2 3 7 14 15 14 23 20 19
13 15 14 16 11 22 21 3 6 6 9 3 3 6 6 5 7 9 3 5 7 6 4 5 6 5 3 5 6 6 8 5 4 3 4 2 5 3 7 13 17 10 14 21 15
15 15 19 15 18 28 23 6 8 6 2 3 5 4 7 8 10 11 13 12 10 12 9 5 6 2 3 3 6 2 3 6 1 2 2 3 2 4 8 10 12 9 3 9 8
14 14 22 11 20 38 11 16 10 5 6 4 3 5 4 1 4 4 7 1 1 9 8 7 9 1 1 2 1 5 7 3 2 3 5 3 3 4 10 11 9 9 8 7 7
7 6 5 20 33 29 11 11 15 21 10 4 7 7 7 5 4 5 4 0 2 0 7 1 5 3 2 4 7 2 2 2 5 4 3 2 4 5 9 9 11 12 17 16 15
7 3 8 24 14 9 15 15 19 10 21 17 10 17 14 8 5 5 8 5 4 2 3 2 2 4 6 4 4 3 5 6 4 4 4 2 5 4 10 12 16 18 16 12 9
8 14 10 30 9 9 10 17 15 14 8 10 10 9 6 10 4 6 2 2 9 4 7 7 2 1 5 4 3 3 4 3 2 4 12 5 5 5 8 13 24 20 16 12 9
7 3 10 24 12 11 14 15 17 15 21 20 8 7 7 5 6 4 3 1 2 3 6 7 4 6 9 3 4 2 5 2 5 3 3 8 11 6 9 15 18 19 14 11 9
14 5 7 5 17 17 13 7 20 17 20 16 8 19 7 5 5 6 4 3 2 3 2 5 5 4 4 2 3 3 9 14 8 9 10 11 4 7 7 10 13 15 13 11 10
11 7 7 4 26 20 15 19 24 15 16 15 16 8 10 15 7 6 6 5 5 4 4 1 3 2 2 3 4 7 11 9 8 6 5 5 4 6 14 19 15 10 9 9 9
25 21 7 6 7 13 21 28 21 14 17 32 19 8 12 16 7 4 6 7 4 7 7 6 5 2 3 1 1 4 6 11 7 4 1 3 4 5 5 8 7 7 8 7 6
Wind_Direction
280 286 290 293 298 300 300 304 310 310 308 310 313 315 319 318 321 327 319 156 46 6 355 7 66 14 321 297 247 241 6 256 259 270 269 331 10 335 333 329 326 331 314 284 190
268 277 283 286 289 291 294 298 299 298 304 307 310 318 312 312 320 326 150 125 4 344 342 320 327 333 273 243 200 154 165 222 219 274 301 302 306 306 302 318 308 318 307 318 241
269 272 277 282 285 287 290 292 298 295 296 297 297 307 315 321 324 162 148 334 319 325 320 323 286 312 277 264 219 213 219 232 272 280 284 285 296 299 259 232 291 295 303 311 311
269 271 274 279 283 286 289 291 294 292 294 296 300 303 303 318 295 228 236 299 310 314 307 311 211 311 270 269 267 265 258 266 272 283 297 288 299 301 273 276 295 290 290 287 290
274 273 274 276 277 280 284 287 289 291 297 300 302 303 310 296 270 286 271 273 282 308 306 289 270 232 242 289 307 253 257 287 300 307 301 296 271 266 289 293 295 292 288 279 279
270 273 276 277 278 280 282 283 283 286 294 301 302 305 307 279 312 201 279 254 261 289 295 241 264 309 299 270 300 302 310 302 308 313 305 277 287 308 275 286 288 287 280 275 272
264 268 272 275 279 282 284 285 284 285 288 290 294 303 294 273 301 273 252 250 224 242 271 268 292 309 320 321 295 306 307 307 281 277 276 286 285 255 286 296 286 285 278 275 271
264 270 275 280 278 281 284 288 290 282 280 282 278 296 271 308 288 306 250 241 242 238 247 265 275 292 275 277 316 320 296 305 207 254 268 176 271 287 297 299 287 269 271 278 272
267 272 279 282 283 281 285 291 289 278 275 270 274 280 271 303 308 270 259 259 227 221 243 251 265 265 265 332 359 291 272 249 311 239 288 240 291 223 306 307 314 278 271 253 254
268 272 277 282 285 290 290 293 282 261 265 268 244 275 256 214 343 304 249 353 209 203 240 230 230 194 49 142 227 229 249 255 197 285 293 304 293 306 306 303 298 299 276 227 183
280 281 278 280 283 293 290 303 271 271 236 222 229 242 252 248 262 283 229 212 195 198 188 218 170 204 220 212 234 270 280 283 274 256 286 281 278 296 306 307 295 302 304 255 154
278 285 276 274 281 276 244 244 227 306 288 268 263 256 260 258 280 243 239 202 189 198 212 294 243 228 218 232 243 249 259 276 285 286 273 292 282 294 311 303 307 301 296 173 137
278 286 276 273 276 260 252 249 201 291 276 276 249 245 255 236 234 251 224 216 200 219 216 214 242 216 217 234 251 253 262 277 286 326 318 304 290 322 295 309 310 325 300 130 120
268 283 271 262 271 250 262 254 156 300 304 274 219 238 190 171 227 262 232 217 200 227 235 246 234 247 264 259 253 275 264 289 313 2 302 163 291 281 287 292 17 49 110 123 118
253 267 260 233 180 223 290 135 157 231 351 166 191 176 160 174 130 33 193 190 214 217 163 212 223 240 262 260 270 278 290 247 231 267 358 287 197 268 339 295 63 68 82 91 105
247 248 252 239 218 194 146 154 144 52 252 302 158 169 148 224 264 144 152 192 225 223 235 247 253 227 246 258 238 254 216 15 334 201 247 264 180 284 18 321 77 65 59 82 93
246 250 252 233 218 158 160 161 89 189 308 229 196 165 188 181 231 231 182 175 185 161 250 276 257 243 236 252 197 129 82 306 310 215 234 39 323 67 42 52 62 71 78 39 55
247 248 256 248 194 164 176 150 198 215 231 299 46 337 215 197 227 217 220 224 225 199 197 218 307 212 214 184 197 187 166 167 249 226 260 56 249 180 90 73 85 40 85 90 40
251 257 263 257 208 178 183 199 214 191 224 252 329 278 290 217 206 204 206 214 217 182 193 210 243 101 93 162 140 198 160 171 1 278 307 222 99 198 153 137 130 180 133 81 76
256 270 261 223 192 184 195 219 234 203 313 5 234 228 252 177 335 191 202 242 275 213 223 225 261 316 54 111 140 162 166 95 80 252 245 252 239 193 201 189 174 146 135 138 132
244 281 248 178 177 189 202 227 238 243 269 249 270 255 279 308 240 254 229 131 151 151 96 67 196 240 155 197 181 143 189 133 151 160 230 256 249 206 198 172 171 168 145 130 114
198 219 199 180 184 188 213 217 224 242 227 243 277 275 260 276 265 246 224 228 181 88 156 136 188 192 203 211 167 167 203 173 149 223 241 201 257 167 155 181 120 115 110 114 93
213 218 195 191 202 213 229 237 243 253 231 233 242 218 235 251 266 231 173 235 202 175 177 167 219 111 331 358 340 209 210 212 145 144 240 233 262 195 133 136 131 127 127 117 88
209 221 189 209 239 225 223 231 227 231 236 251 268 295 273 278 221 242 147 182 203 180 169 113 154 191 232 196 137 176 325 246 203 171 212 237 263 258 143 128 137 135 126 109 73
205 229 203 182 218 219 218 228 232 238 230 202 239 238 240 249 224 218 139 149 56 180 75 118 201 211 243 195 175 161 244 261 274 235 224 250 245 44 78 117 117 115 105 86 68
200 202 215 253 214 207 208 231 232 245 228 222 236 238 222 230 203 218 148 174 179 188 170 164 201 155 284 276 268 244 249 258 258 265 251 208 117 89 82 84 80 79 76 66 53
220 227 225 215 193 192 210 226 232 236 240 232 238 219 223 228 207 185 229 275 165 160 172 162 142 109 264 226 0 259 223 238 250 63 156 183 153 147 88 85 77 76 78 79 71